Weather History for Columbia, MO

Change the Weather History Date:

Sunday, November 4, 2012

  Actual Average Record
Temperature  
Mean Temperature 42 °F 50 °F  
Max Temperature 53 °F 60 °F 83 °F (1978)
Min Temperature 30 °F 40 °F 13 °F (1991)
Degree Days  
Heating Degree Days 23 15  
Month to date heating degree days 69 59  
Since 1 July heating degree days 466 424  
Cooling Degree Days 0 0  
Month to date cooling degree days 0 0  
Year to date cooling degree days 1893 1247  
Moisture  
Dew Point 34 °F    
Average Humidity 75    
Maximum Humidity 100    
Minimum Humidity 50    
Precipitation  
Precipitation T in 0.11 in 2.27 in (1935)
Month to date precipitation T 0.41  
Year to date precipitation 28.15 37.34  
Snow  
Snow 0.00 in 0.00 in 0.40 in (1966)
Month to date snowfall 0.0 0.0  
Since 1 July snowfall 0.0 0.0  
Since 1 September snowfall 0.0 0.0  
Snow Depth 0.00 in    
Sea Level Pressure  
Sea Level Pressure 30.21 in    
Wind  
Wind Speed 4 mph (ESE)    
Max Wind Speed 13 mph    
Max Gust Speed 15 mph    
Visibility 7 miles    
Events Fog    
T = Trace of Precipitation, MM = Missing Value Source: NWS Daily Summary

Daily Weather History Graph

Daily Weather History Graph

Search for Another Location

Airport:

Trip Planner

Search our weather history database for the weather conditions in past years. The results will help you decide how hot, cold, wet, or windy it might be!

Date:

Astronomy

Nov. 04, 2012 Rise Set
Actual Time 6:39 AM CST 5:04 PM CST
Civil Twilight 6:11 AM CST 5:32 PM CST
Nautical Twilight 5:40 AM CST 6:04 PM CST
Astronomical Twilight 5:09 AM CST 6:35 PM CST
Moon 9:43 PM CST (11/4) 11:23 AM CST (11/4)
Length of Visible Light 11h 20m
Length of Day
10h 24m
Waning Gibbous, 72% of the Moon is Illuminated
Nov 4
Waning Gibbous
Nov 6
Last Quarter
Nov 13
New
Nov 20
First Quarter
Nov 28
Full

Hourly Weather History & Observations

Time (CST) Temp. Windchill Dew Point Humidity Pressure Visibility Wind Dir Wind Speed Gust Speed Precip Events Conditions
12:54 AM 39.0 °F 35.7 °F 34.0 °F 82% 30.22 in 10.0 mi East 4.6 mph - N/A   Clear
1:54 AM 36.0 °F 32.1 °F 33.1 °F 89% 30.22 in 8.0 mi ENE 4.6 mph - N/A   Clear
1:54 AM 36.0 °F 32.1 °F 33.1 °F 89% 30.23 in 8.0 mi East 4.6 mph - N/A   Clear
2:54 AM 36.0 °F 33.3 °F 34.0 °F 93% 30.23 in 6.0 mi East 3.5 mph - N/A   Clear
3:54 AM 35.1 °F 32.2 °F 33.1 °F 92% 30.22 in 5.0 mi East 3.5 mph - N/A   Clear
4:54 AM 34.0 °F - 32.0 °F 92% 30.23 in 5.0 mi Calm Calm - N/A   Clear
5:41 AM 33.8 °F 30.8 °F 32.0 °F 93% 30.22 in 2.5 mi East 3.5 mph - N/A   Clear
5:54 AM 33.1 °F 30.0 °F 32.0 °F 96% 30.24 in 4.0 mi ENE 3.5 mph - N/A   Clear
6:00 AM 32.0 °F 27.5 °F 30.2 °F 93% 30.23 in 1.8 mi East 4.6 mph - N/A   Clear
6:09 AM 33.8 °F 30.8 °F 30.2 °F 87% 30.23 in 3.0 mi East 3.5 mph - N/A   Clear
6:27 AM 32.0 °F - 30.2 °F 93% 30.23 in 1.5 mi Calm Calm - N/A   Clear
6:36 AM 30.2 °F - 28.4 °F 93% 30.23 in 0.5 mi Calm Calm - N/A Fog Light Freezing Fog
6:54 AM 32.0 °F 26.4 °F 32.0 °F 100% 30.24 in 1.2 mi ESE 5.8 mph - N/A   Clear
7:04 AM 32.0 °F 27.5 °F 30.2 °F 93% 30.23 in 3.0 mi ESE 4.6 mph - N/A   Clear
7:24 AM 33.8 °F 30.8 °F 32.0 °F 93% 30.24 in 2.5 mi ENE 3.5 mph - N/A   Clear
7:45 AM 35.6 °F 32.8 °F 35.6 °F 100% 30.25 in 3.0 mi East 3.5 mph - N/A   Clear
7:54 AM 37.0 °F - 36.0 °F 96% 30.27 in 6.0 mi Calm Calm - N/A   Clear
8:54 AM 39.9 °F 37.8 °F 36.0 °F 86% 30.26 in 7.0 mi SE 3.5 mph - N/A   Clear
9:54 AM 42.1 °F - 37.0 °F 82% 30.27 in 8.0 mi Calm Calm - N/A   Clear
10:33 AM 44.6 °F 43.1 °F 37.4 °F 76% 30.25 in 1.5 mi South 3.5 mph - N/A   Haze
10:41 AM 46.4 °F - 35.6 °F 66% 30.25 in 10.0 mi Calm Calm - N/A   Partly Cloudy
10:54 AM 46.9 °F - 36.0 °F 66% 30.26 in 10.0 mi Calm Calm - N/A   Clear
11:54 AM 48.9 °F - 35.1 °F 59% 30.22 in 10.0 mi Calm Calm - N/A   Scattered Clouds
12:54 PM 52.0 °F - 35.1 °F 53% 30.21 in 10.0 mi Calm Calm - N/A   Clear
1:54 PM 53.1 °F - 35.1 °F 50% 30.18 in 10.0 mi SSE 5.8 mph - N/A   Clear
2:54 PM 51.1 °F - 35.1 °F 54% 30.17 in 10.0 mi ESE 5.8 mph - N/A   Clear
3:54 PM 51.1 °F - 34.0 °F 52% 30.16 in 10.0 mi SE 4.6 mph - N/A   Partly Cloudy
4:54 PM 48.0 °F - 34.0 °F 58% 30.15 in 10.0 mi SE 6.9 mph - N/A   Mostly Cloudy
5:54 PM 46.9 °F - 33.1 °F 59% 30.15 in 10.0 mi ESE 4.6 mph - N/A   Scattered Clouds
6:54 PM 46.9 °F - 33.1 °F 59% 30.15 in 10.0 mi SE 6.9 mph - N/A   Overcast
7:54 PM 46.0 °F 41.4 °F 34.0 °F 63% 30.14 in 10.0 mi SE 9.2 mph - N/A   Mostly Cloudy
8:54 PM 46.0 °F 43.1 °F 34.0 °F 63% 30.15 in 10.0 mi NE 5.8 mph - N/A   Mostly Cloudy
9:54 PM 45.0 °F 41.8 °F 34.0 °F 65% 30.15 in 10.0 mi East 5.8 mph - N/A   Mostly Cloudy
10:54 PM 45.0 °F 40.1 °F 34.0 °F 65% 30.13 in 10.0 mi ESE 9.2 mph - N/A   Overcast